Home   Weather   Norfolk   Past weeks

Flag for Canada Past Weather in Norfolk, Ontario, Canada — Yesterday and Last 2 Weeks

Now
60 °F

Cool.


Feels Like: 60 °F
Forecast: 56 / 60 °F
Wind: 2 mph from East

Location: Delhi Cs Ont

Current Time: Sep 29, 2016 at 2:45:19 AM

Latest Report: Sep 29, 2016 at 2:00 AM


Visibility: N/A

Pressure: 30.08 "Hg

Humidity: 76%

Dew Point: 53 °F

Location of NorfolkLocation

Past Weather in Norfolk — Graph

°F

Norfolk Temperature Yesterday

Maximum temperature yesterday: 71 °F (at 5:00 PM)
Minimum temperature yesterday: 45 °F (at 6:00 AM)
Average temperature yesterday: 59 °F

High & Low Weather Summary for the Past Weeks

 TemperatureHumidityPressure
High85 °F (Sep 22, 4:00 PM)100% (Sep 19, 1:00 AM)30.32 "Hg (Sep 19, 1:00 AM)
Low38 °F (Sep 25, 7:00 AM)23% (Sep 21, 2:00 PM)29.74 "Hg (Sep 27, 4:00 PM)
Average62 °F75%30.06 "Hg
* Reported Sep 14 1:00 AM — Sep 29 1:00 AM, Norfolk, Weather by CustomWeather, © 2016

Note: Actual official high and low records may vary slightly from our data, if they occured in-between our weather recording intervals... More about our weather records

Advertising

Norfolk Weather History for the Previous 24 Hours

Scroll right to see more
 ConditionsComfort  
Time TempWeatherWind HumidityBarometerVisibility
1:00 AM
Thu, Sep 29
61 °FCool.2 mph76%30.09 "HgN/A
12:00 AM60 °FCool.2 mph76%30.07 "HgN/A
11:00 PM
Wed, Sep 28
62 °FCool.3 mph77%30.06 "HgN/A
10:00 PM60 °FCool.2 mph85%30.04 "HgN/A
9:00 PM62 °FMild.3 mph72%30.04 "HgN/A
8:00 PM64 °FMild.3 mph71%30.03 "HgN/A
7:00 PM68 °FMild.2 mph52%30.00 "HgN/A
6:00 PM70 °FMild.5 mph50%29.99 "HgN/A
5:00 PM71 °FMild.5 mph47%29.98 "HgN/A
4:00 PM71 °FMild.7 mph50%29.97 "HgN/A
3:00 PM70 °FMild.9 mph52%29.96 "HgN/A
2:00 PM71 °FMild.7 mph51%29.96 "HgN/A
1:00 PM70 °FMild.7 mph44%29.96 "HgN/A
10:00 AM62 °FCool.5 mph70%29.94 "HgN/A
9:00 AM55 °FCool.2 mph92%29.92 "HgN/A
8:00 AM50 °FCool.No wind97%29.91 "HgN/A
7:00 AM46 °FCool.1 mph96%29.89 "HgN/A
6:00 AM45 °FQuite cool.1 mph95%29.88 "HgN/A
5:00 AM46 °FCool.1 mph96%29.86 "HgN/A
4:00 AM47 °FCool.No wind92%29.85 "HgN/A
3:00 AM49 °FCool.No wind90%29.85 "HgN/A
2:00 AM51 °FCool.No wind89%29.84 "HgN/A
Weather by CustomWeather, © 2016

See weather overviewHow to use our weather pages